FW6369 Weather Reports


Display with metric or nautical units.
time (UTC)temp
F
wind
direction
speed
MPH
gust
MPH
rain 1hr
in
rain 24hr
in
rain mn
in
humidity
%
barometer
mb
20260510081601 52 172 1.0 4.0 0.00 0.00 0.00 94 1014.4
20260510080049 53 119 1.0 3.0 0.00 0.00 0.00 93 1014.3
20260510074602 53 123 0.0 3.0 0.00 0.00 0.00 93 1014.3
20260510073055 53 121 1.0 4.0 0.00 0.00 0.00 93 1014.4
20260510071552 53 116 0.0 3.0 0.00 0.00 0.00 92 1014.2
20260510070056 53 116 1.0 4.0 0.00 0.00 0.00 92 1014.1
20260510064551 53 0 1.0 5.0 0.00 0.00 0.00 91 1014.1
20260510063054 53 120 1.0 3.0 0.00 0.00 0.00 91 1014.0
20260510061552 53 0 0.0 3.0 0.00 0.00 0.00 90 1014.1
20260510060054 54 98 1.0 3.0 0.00 0.00 0.00 89 1014.1
20260510054549 54 109 1.0 7.0 0.00 0.00 0.00 89 1014.1
20260510053050 55 126 1.0 5.0 0.00 0.00 0.00 88 1014.0
20260510051626 55 86 2.0 4.0 0.00 0.00 0.00 87 1013.9
20260510050056 56 137 1.0 3.0 0.00 0.00 0.00 86 1013.9
20260510044548 56 194 1.0 4.0 0.00 0.00 0.00 85 1013.7
20260510043132 57 0 0.0 3.0 0.00 0.00 0.00 84 1013.5
20260510041553 57 111 2.0 5.0 0.00 0.00 0.00 84 1013.3
20260510040051 58 116 1.0 6.0 0.00 0.00 0.00 83 1013.3
20260510034555 59 176 0.0 3.0 0.00 0.00 0.00 81 1013.0
20260510033053 60 108 1.0 6.0 0.00 0.00 0.00 80 1012.9
20260510031621 61 115 2.0 6.0 0.00 0.00 0.00 77 1012.8
20260510030054 62 137 2.0 6.0 0.00 0.00 0.00 76 1012.7
20260510024553 63 82 2.0 6.0 0.00 0.00 0.00 75 1012.6
20260510023100 64 113 3.0 7.0 0.00 0.00 0.00 73 1012.5
20260510021608 66 90 2.0 7.0 0.00 0.00 0.00 71 1012.5
20260510020054 67 122 2.0 8.0 0.00 0.00 0.00 69 1012.4
20260510014549 67 104 2.0 9.0 0.00 0.00 0.00 68 1012.4
20260510013050 68 86 4.0 9.0 0.00 0.00 0.00 67 1012.4
20260510011607 69 115 3.0 10.0 0.00 0.00 0.00 66 1012.4
20260510010103 70 130 4.0 10.0 0.00 0.00 0.00 65 1012.4
20260510004551 71 82 5.0 10.0 0.00 0.00 0.00 64 1012.5
20260510003050 72 130 6.0 11.0 0.00 0.00 0.00 63 1012.6
20260510001549 73 109 5.0 11.0 0.00 0.00 0.00 62 1012.7
20260510000052 74 85 6.0 11.0 0.00 0.00 0.00 61 1012.7
20260509234551 75 110 4.0 9.0 0.00 0.00 0.00 57 1012.9
20260509233048 74 140 6.0 11.0 0.00 0.00 0.00 55 1013.0
20260509231558 75 131 4.0 11.0 0.00 0.00 0.00 57 1013.1
20260509230050 76 107 3.0 10.0 0.00 0.00 0.00 57 1013.2
20260509224548 77 104 4.0 9.0 0.00 0.00 0.00 56 1013.3
20260509223053 77 128 4.0 9.0 0.00 0.00 0.00 56 1013.5
20260509221556 77 123 4.0 9.0 0.00 0.00 0.00 57 1013.6
20260509220050 78 84 2.0 12.0 0.00 0.00 0.00 55 1013.7
20260509214550 77 191 3.0 11.0 0.00 0.00 0.00 55 1013.8
20260509213102 77 130 5.0 10.0 0.00 0.00 0.00 55 1014.0
20260509211611 78 136 2.0 8.0 0.00 0.00 0.00 56 1014.2
20260509210058 77 191 2.0 9.0 0.00 0.00 0.00 59 1014.3
20260509204600 79 109 3.0 10.0 0.00 0.00 0.00 56 1014.3
20260509203057 80 189 2.0 7.0 0.00 0.00 0.00 55 1014.5
20260509201550 79 84 1.0 6.0 0.00 0.00 0.00 52 1014.5
20260509200054 79 297 2.0 10.0 0.00 0.00 0.00 51 1014.5
20260509194554 79 202 0.0 4.0 0.00 0.00 0.00 51 1014.7
20260509193055 78 45 1.0 3.0 0.00 0.00 0.00 53 1014.8
20260509191551 76 104 1.0 4.0 0.00 0.00 0.00 54 1015.0
20260509190052 76 128 2.0 6.0 0.00 0.00 0.00 54 1015.0
20260509184554 75 5 1.0 6.0 0.00 0.00 0.00 57 1015.1
20260509183053 74 167 1.0 4.0 0.00 0.00 0.00 57 1015.2
20260509181607 73 0 0.0 4.0 0.00 0.00 0.00 60 1015.2
20260509180050 72 99 1.0 4.0 0.00 0.00 0.00 60 1015.3
20260509174557 71 0 1.0 4.0 0.00 0.00 0.00 62 1015.4
20260509173057 70 257 0.0 3.0 0.00 0.00 0.00 65 1015.4
20260509171606 69 0 0.0 4.0 0.00 0.00 0.00 66 1015.6
20260509170052 67 320 1.0 3.0 0.00 0.00 0.00 70 1015.5
20260509164553 65 96 0.0 3.0 0.00 0.00 0.00 72 1015.6
20260509163101 64 98 0.0 4.0 0.00 0.00 0.00 75 1015.7
20260509161551 62 0 1.0 4.0 0.00 0.00 0.00 76 1015.9
20260509160052 60 117 1.0 4.0 0.00 0.00 0.00 80 1016.0
20260509154552 58 106 1.0 3.0 0.00 0.00 0.00 87 1015.9
20260509153052 55 175 0.0 2.0 0.00 0.00 0.00 95 1016.0
20260509151553 53 0 0.0 2.0 0.00 0.00 0.00 98 1015.9
20260509150049 51 0 0.0 2.0 0.00 0.00 0.00 98 1015.7
20260509144547 49 0 0.0 1.0 0.00 0.00 0.00 97 1015.6
20260509143054 49 0 0.0 1.0 0.00 0.00 0.00 97 1015.7
20260509141551 48 0 0.0 0.0 0.00 0.00 0.00 97 1015.5
20260509140051 47 0 0.0 0.0 0.00 0.00 0.00 97 1015.4
20260509134553 47 0 0.0 0.0 0.00 0.00 0.00 97 1015.3
20260509133104 47 0 0.0 0.0 0.00 0.00 0.00 96 1015.3
20260509131555 47 0 0.0 0.0 0.00 0.00 0.00 96 1015.3
20260509130049 47 0 0.0 0.0 0.00 0.00 0.00 96 1015.2
20260509124547 47 0 0.0 0.0 0.00 0.00 0.00 96 1015.3
20260509123051 47 0 0.0 1.0 0.00 0.00 0.00 96 1015.2
20260509121555 47 0 0.0 0.0 0.00 0.00 0.00 96 1015.2
20260509120051 47 0 0.0 0.0 0.00 0.00 0.00 96 1015.2
20260509114556 47 0 0.0 0.0 0.00 0.00 0.00 96 1015.3
20260509113053 47 0 0.0 0.0 0.00 0.00 0.00 96 1015.4
20260509111553 47 0 0.0 0.0 0.00 0.00 0.00 95 1015.3
20260509110057 47 0 0.0 0.0 0.00 0.00 0.00 95 1015.4
20260509104549 48 0 0.0 0.0 0.00 0.00 0.00 95 1015.3
20260509103054 48 0 0.0 0.0 0.00 0.00 0.00 95 1015.3
20260509101550 48 0 0.0 0.0 0.00 0.00 0.00 95 1015.3
20260509100108 48 0 0.0 1.0 0.00 0.00 0.00 95 1015.3
20260509094551 49 161 0.0 1.0 0.00 0.00 0.00 95 1015.3
20260509093048 49 0 0.0 1.0 0.00 0.00 0.00 95 1015.4
20260509091552 49 0 0.0 1.0 0.00 0.00 0.00 95 1015.6
20260509090055 49 0 0.0 1.0 0.00 0.00 0.00 95 1015.7
20260509084551 49 0 0.0 0.0 0.00 0.00 0.00 94 1015.7
20260509083051 50 0 0.0 0.0 0.00 0.00 0.00 94 1015.7